Regional Weather Roundup
Issued by NWS

Home | Current Version | Previous Version | Graphics & Text | Print | Product List | Glossary Off
Versions: 1 2 3 4 5 6 7 8 9 10 11 12 13 14 15 16 17 18 19 20 21 22 23 24 25 26 27 28 29 30 31 32 33 34 35 36 37 38 39 40 41 42 43 44 45 46 47 48 49 50

000
ASUS43 KMKX 231025
RWRWI

WISCONSIN REGIONAL WEATHER ROUNDUP
NATIONAL WEATHER SERVICE MILWAUKEE/SULLIVAN WI
500 AM CDT THU OCT 23 2014

NOTE: "FAIR" INDICATES FEW OR NO CLOUDS BELOW 12,000 FEET WITH NO
SIGNIFICANT WEATHER AND/OR OBSTRUCTIONS TO VISIBILITY.

WIZ001-002-006>008-014>016-023>028-231100-
NORTHWEST WISCONSIN

CITY           SKY/WX    TMP DP  RH WIND       PRES   REMARKS
SUPERIOR ARPT  LGT RAIN  51  44  77 SW8       29.97S
ASHLAND        CLOUDY    51  42  71 S6        30.01F
HAYWARD        RAIN      49  42  77 S10       30.01F
SIREN          DRIZZLE   49  45  84 S8        30.00S
CUMBERLAND     CLOUDY    46  41  81 SE7       30.02R
RICE LAKE      CLOUDY    47  43  84 SE7       30.04S
CHETEK         CLOUDY    46  44  91 E8        30.04S
LADYSMITH      CLOUDY    47  43  86 SE7       30.07F
EAU CLAIRE     CLOUDY    49  42  77 SE8       30.05S
MENOMONIE      CLOUDY    48  45  88 E6        30.04S
NEW RICHMOND   RAIN      48  47  93 S8        30.01S
OSCEOLA        DRIZZLE   49  49 100 SE5       30.02F
$$

WIZ003>005-009-010-017-018-231100-
NORTH CENTRAL WISCONSIN

CITY           SKY/WX    TMP DP  RH WIND       PRES   REMARKS
MANITOWISH WTR CLOUDY    45  37  73 S7        30.06S
ARBOR VITAE    CLOUDY    47  38  71 S10G17    30.07F
WOODRUFF       CLOUDY    47  38  71 S10G17    30.07F
RHINELANDER    CLOUDY    45  35  68 S9        30.10S
EAGLE RIVER    CLOUDY    44  35  71 S5        30.09S
LAND O LAKES   MOCLDY    45  36  72 S6        30.09S
PHILLIPS       LGT RAIN  44  39  84 S7        30.06S
TOMAHAWK       RAIN      42  37  83 CALM      30.11S
MEDFORD        LGT RAIN  41  39  93 SE8       30.09F
MERRILL        DRIZZLE   42  38  86 S3        30.12S
$$

WIZ029-030-035-036-043>047-231100-
CENTRAL WISCONSIN

CITY           SKY/WX    TMP DP  RH WIND       PRES   REMARKS
WAUSAU         CLOUDY    43  37  79 SE3       30.12S
MOSINEE        CLOUDY    39  37  93 S6        30.14S WCI  35
MARSHFIELD     CLOUDY    43  39  86 SE8       30.11S
STEVENS POINT  MOCLDY    38  35  91 SE6       30.15S WCI  33
WAUPACA        CLEAR     35  34  95 CALM      30.18S FOG
WAUTOMA        PTCLDY    30  30 100 CALM      30.18S
WISC RAPIDS    CLOUDY    42  37  82 S7        30.15S
CAMP DOUGLAS   CLOUDY    44  41  90 SE5       30.12F
$$

WIZ011>013-019>022-031-037>040-048>050-231100-
NORTHEAST WISCONSIN

CITY           SKY/WX    TMP DP  RH WIND       PRES   REMARKS
ANTIGO         MOCLDY    37  36  99 S8        30.13F FOG     WCI  30
SHAWANO        FOG       35  34  95 CALM      30.18S VSB 1/4
OCONTO         MOCLDY    32  32 100 CALM      30.19R VSB 1/2
STURGEON BAY   CLEAR     41  37  87 S8        30.20S
GREEN BAY      MOCLDY    39  37  92 S7        30.19F WCI  34
MANITOWOC      PTCLDY    41  39  93 SW3       30.20F
APPLETON       PTCLDY    37  34  87 S7        30.18F WCI  32
CLINTONVILLE   PTCLDY    30  30 100 CALM      30.18S
OSHKOSH        CLEAR     35  33  92 SW3       30.18S
$$

WIZ032>034-041-042-053>061-231100-
SOUTHWEST WISCONSIN

CITY           SKY/WX    TMP DP  RH WIND       PRES   REMARKS
LA CROSSE      LGT RAIN  51  43  74 SE3       30.08F
SPARTA         CLOUDY    51  37  57 S7        30.10F
VIROQUA        CLOUDY    48  38  68 S10       30.10F
BOSCOBEL       CLOUDY    49  37  63 S3        30.14F
PRAIRIE DU CHI CLOUDY    52  37  58 SE6       30.12S
PLATTEVILLE    CLOUDY    39  36  86 E8        30.16F WCI  34
$$

WIZ056-057-062-063-064-067-068-231100-
SOUTH CENTRAL WISCONSIN

CITY           SKY/WX    TMP DP  RH WIND       PRES   REMARKS
REEDSBURG      CLOUDY    45  36  70 S6        30.14F
BARABOO/DELLS  CLOUDY    42  34  73 S8        30.15F
LONE ROCK      CLOUDY    46  36  68 E8        30.16F
MINERAL POINT  PTCLDY    41  36  81 SE8       30.15F
MADISON        PTCLDY    39  34  82 S7        30.20R WCI  34
MIDDLETON      PTCLDY    38  33  83 CALM      30.19R
WATERTOWN      CLEAR     34  33  96 CALM      30.19R
MONROE         PTCLDY    39  36  87 S6        30.18R WCI  35
JANESVILLE     CLEAR     34  32  93 SE6       30.18F WCI  29
$$

WIZ051-052-058>065-066-070>072-231100-
SOUTHEAST WISCONSIN

CITY           SKY/WX    TMP DP  RH WIND       PRES   REMARKS
MILWAUKEE      PTCLDY    39  36  89 S6        30.21S WCI  35
WAUKESHA       CLEAR     32  32 100 S3        30.21S FOG
MILWAUKEE/TIMM PTCLDY    32  30  93 CALM      30.21F
RACINE         CLEAR     39  37  92 S6        30.22F WCI  35
BURLINGTON     PTCLDY    26  26  99 CALM      30.20F FOG
KENOSHA        CLEAR     37  35  92 S6        30.21F WCI  32
FOND DU LAC    CLEAR     37  32  82 CALM      30.19S
SHEBOYGAN      PTCLDY    29  28  96 CALM      30.20S
WEST BEND      PTCLDY    32  30  93 CALM      30.20S
JUNEAU         CLEAR     37  33  87 SE5       30.21R WCI  33
$$

LSZ147-162-231100-
LAKE SUPERIOR

STATION/POSITION TIME  TEMP    WIND        PRES    WAVE
                       AIR SEA DIR/SP/G            HT/PER
                 (UTC) (F)     (DEG/KT/KT) (MB)    (FT/S)
W MID LAKE BUOY  0950   48 46  150/ 12/ 14 1017.1F   2/ 3
DEVILS ISLAND    1000   51     180/  9/ 12 1016.2F
PORT WING        0900   53     180/  8/ 12 1015.6F
SAXON HARBOR     0900   54     180/  5/ 11 1016.3F
$$

LMZ867-665-643>646-231100-
LAKE MICHIGAN

STATION/POSITION TIME  TEMP    WIND        PRES    WAVE
                       AIR SEA DIR/SP/G            HT/PER
                 (UTC) (F)     (DEG/KT/KT) (MB)    (FT/S)
CHAMBERS ISLAND  0900   46     170/  6/ 12 1022.4F
N MID LAKE BUOY  0950   47 51  200/ 16/ 19 1022.9F   2/ 4
NORTHPORT PIER   0900   46     160/  4/  7 1022.4F
SISTER BAY       0842          170/  9/ 12   N/A
ALGOMA LAKESHORE 0911          230/ 10/ 11   N/A
KEWAUNEE LAKESHO 0900   39     280/  3/  4 1021.9F
SHEBOYGAN LAKESH 1000   41 51  230/  6/  7 1023.4F
PORT WASHINGTON  0900   40     260/  4/  6 1023.7
ATWATER BUOY     1000   47     200/ 10/ 12 1023.7F
MILWAUKEE LAKESH 1000   44     220/  9/ 10   N/A
S MID LAKE BUOY  0950   50 54  180/ 12/ 14 1023.7F   2/ 4
KENOSHA   LAKESH 1000   44     200/  7/  8 1023.0S
$$

TC  - TEMPERATURE IN CELSIUS
VSB - VISIBILITY IN STATUTE MILES
WCI - WIND CHILL INDEX
HX  - HEAT INDEX




USA.gov is the U.S. government's official web portal to all federal, state and local government web resources and services.